Regional Weather Roundup
Issued by NWS Boston, MA

Current Version | Previous Version | Text Only | Print | Product List | Glossary On
Versions: 1 2 3 4 5 6 7 8 9 10 11 12 13 14 15 16 17 18 19 20 21 22 23 24 25 26 27 28 29 30 31 32 33 34 35 36 37 38 39 40 41 42 43 44 45 46 47 48 49 50
000 ASUS41 KBOX 201610 RWRBOX REGIONAL WEATHER ROUNDUP NATIONAL WEATHER SERVICE TAUNTON MA 1200 PM EDT THU JUL 20 2017 NOTE: "FAIR" INDICATES FEW OR NO CLOUDS BELOW 12,000 FEET WITH NO SIGNIFICANT WEATHER AND/OR OBSTRUCTIONS TO VISIBILITY. MAZALL-201700- EASTERN MASSACHUSETTS CITY SKY/WX TMP DP RH WIND PRES REMARKS BOSTON PTSUNNY 89 64 43 NW10 29.92F HX 90 BEVERLY PTSUNNY 87 70 56 SW10 29.92F HX 92 LAWRENCE MOSUNNY 88 69 53 SW6 29.95S HX 92 BEDFORD CLOUDY 87 66 49 NW9 29.92F BLUE HILL N/A 86 65 49 W10 29.95F NORWOOD PTSUNNY N/A N/A N/A W7 29.92F MARSHFIELD MOSUNNY 88 70 55 W7 29.92F HX 92 PLYMOUTH SUNNY 88 67 49 W8 29.94F HX 91 TAUNTON MOSUNNY 88 67 49 SW6 29.93F HX 91 NEW BEDFORD SUNNY 89 66 46 W5 29.93F HX 91 $$ MAZALL-201700- CAPE COD AND THE ISLANDS CITY SKY/WX TMP DP RH WIND PRES REMARKS FALMOUTH MOSUNNY 86 68 54 W7 29.95F HYANNIS MOSUNNY 86 73 65 SW7 29.92F HX 93 CHATHAM MOSUNNY 86 74 67 SW8 29.95F HX 94 PROVINCETOWN MOSUNNY 84 68 58 SW7 29.94F NANTUCKET MOSUNNY 80 69 69 SW9 29.95F MARTHAS VNYRD SUNNY 88 66 48 W5 29.94F HX 90 $$ MAZALL-201700- CENTRAL AND WESTERN MASSACHUSETTS CITY SKY/WX TMP DP RH WIND PRES REMARKS WORCESTER PTSUNNY 82 64 54 W10 29.99S FITCHBURG PTSUNNY 88 67 49 SW8 29.95S HX 91 ORANGE PTSUNNY 85 67 54 W12 29.96S SPRINGFIELD PTSUNNY 87 68 52 W6 29.94F HX 90 WESTFIELD MOSUNNY 88 69 53 S7 29.95S HX 92 NORTH ADAMS PTSUNNY 82 68 62 VRB7 29.96F PITTSFIELD MOSUNNY 83 65 54 W12G20 29.98F $$ RIZALL-201700- RHODE ISLAND CITY SKY/WX TMP DP RH WIND PRES REMARKS PROVIDENCE NOT AVBL NEWPORT MOSUNNY 87 70 56 S7 29.95F HX 92 BLOCK ISLAND MOSUNNY 85 66 53 W9 29.97F WESTERLY MOSUNNY 88 65 46 VRB7 29.97F HX 90 $$ CTZALL-201700- CONNECTICUT CITY SKY/WX TMP DP RH WIND PRES REMARKS BRADLEY INTL NOT AVBL HARTFORD MOSUNNY N/A N/A N/A MISG 29.95S BRIDGEPORT SUNNY 86 65 49 SW7 29.96F DANBURY SUNNY 87 69 54 W8 30.00S HX 91 GROTON MOSUNNY 85 66 53 SW7 29.95F NEW HAVEN SUNNY 85 65 51 S7 29.97S CHESTER FAIR 88 66 48 SW7 29.98S HX 90 MERIDEN SUNNY 88 68 51 S8 29.96S HX 91 WILLIMANTIC MOSUNNY 90 66 45 W3 29.95F HX 92 OXFORD MOSUNNY 86 68 54 W6 30.00F $$ MEZ002-015-021-024-NHZ003-005-008-011-012-014-VTZ005-008-201700- NORTHERN NEW ENGLAND CITY SKY/WX TMP DP RH WIND PRES REMARKS PORTLAND ME MOSUNNY 86 64 47 NW5 29.91F BANGOR ME MOSUNNY 82 64 54 VRB5 29.90S CONCORD NH NOT AVBL MANCHESTER NH CLOUDY 88 62 41 W7 29.92S NASHUA NH PTSUNNY 87 66 49 NW6 29.93S PORTSMOUTH NH PTSUNNY 86 68 54 W8 29.91S JAFFREY NH PTSUNNY 85 67 54 VRB7 29.98F KEENE NH PTSUNNY 85 70 60 SW8 29.94F BURLINGTON VT MOSUNNY 85 64 49 W5 29.90F MT. WASHINGTON FOG 54 54 100 W17 N/A VSB 0 $$ NYZ052-076-201700- EASTERN NEW YORK CITY SKY/WX TMP DP RH WIND PRES REMARKS ALBANY NOT AVBL NEW YORK CITY PTSUNNY 93 68 43 W9 29.95F HX 97 $$ ANZALL-201700- MARINE OBSERVATIONS STATION/POSITION TIME TEMP WIND PRES VSBY WAVE AIR SEA DIR/SP/G HT/PER (UTC) (F) (DEG/KT/KT) (MB) (MI) (FT/S) BOSTON BUOY 1550 81 73 260/ 2/ 2 1013.0F 1/12 BUZZARDS BAY 1500 75 240/ 11/ 11 1014.8F NANTUCKET SOUND 1550 72 1013.9F 1 MASS BAY-STELLWA 1504 71 65 210/ 6/ 6 1012.8R 1/11 ISLE OF SHOALS 1500 79 220/ 8/ 8 1012.9S S OF BLOCK IS 1555 74 N/A 3/ 5 $$ ......................KEY......................... SKY/WX - SKY CONDITION/PRESENT WEATHER TMP - TEMPERATURE IN FAHRENHEIT DWPT - DEWPOINT IN FAHRENHEIT RH - RELATIVE HUMIDITY IN PERCENT WIND - DIRECTION AND SPEED IN MPH PRES - MEAN SEA LEVEL PRESSURE IN INCHES OF HG WCI - WIND CHILL INDEX VSB - VISIBILITY IN MILES HX - HEAT INDEX TC - TEMPERATURE IN CELSIUS VRB - VARIABLE WIND DIRECTION N/A - NOT AVAILABLE

USA.gov is the U.S. government's official web portal to all federal, state and local government web resources and services.